Terminal Aerodrome Forecast
Issued by NWS Amarillo, TX

Home | Current Version | Previous Version | Text Only | Print | Product List | Glossary On
Versions: 1 2 3 4 5 6 7 8 9 10 11 12 13 14 15 16 17
000
FTUS44 KAMA 310500
TAFAMA
TAF
KAMA 310520Z 3106/0106 15012KT 4SM -RASNPL BR OVC015
     FM311000 18010KT 2SM -RAPLSN OVC005
     FM311600 14008KT 4SM RA BR OVC005
     FM010000 20006KT P6SM OVC008=

USA.gov is the U.S. government's official web portal to all federal, state and local government web resources and services.